TimeMST,TemperatureF,Dew PointF,Humidity,Sea Level PressureIn,VisibilityMPH,Wind Direction,Wind SpeedMPH,Gust SpeedMPH,PrecipitationIn,Events,Conditions,WindDirDegrees,DateUTC
12:54 AM,32.0,25.0,75,30.02,6.0,North,12.7,-,0.00,Snow,Light Snow,360,2013-02-07 07:54:00
1:54 AM,32.0,26.1,79,30.03,10.0,NNW,9.2,-,0.00,Snow,Light Snow,330,2013-02-07 08:54:00
2:54 AM,30.0,25.0,82,30.05,10.0,North,17.3,-,0.00,,Scattered Clouds,10,2013-02-07 09:54:00
3:54 AM,30.0,21.9,72,30.08,10.0,NNW,8.1,-,N/A,,Scattered Clouds,340,2013-02-07 10:54:00
4:54 AM,27.0,21.0,78,30.16,10.0,North,10.4,-,N/A,,Partly Cloudy,360,2013-02-07 11:54:00
5:54 AM,26.1,19.0,75,30.19,10.0,NNW,8.1,-,N/A,,Partly Cloudy,340,2013-02-07 12:54:00
6:54 AM,23.0,17.1,78,30.24,10.0,Calm,Calm,-,N/A,,Scattered Clouds,0,2013-02-07 13:54:00
7:54 AM,26.1,19.9,78,30.25,10.0,WNW,3.5,-,N/A,,Scattered Clouds,290,2013-02-07 14:54:00
8:54 AM,30.9,24.1,76,30.23,10.0,Calm,Calm,-,N/A,,Partly Cloudy,0,2013-02-07 15:54:00
9:54 AM,35.1,25.0,67,30.23,10.0,East,4.6,-,N/A,,Scattered Clouds,100,2013-02-07 16:54:00
10:54 AM,35.1,28.0,76,30.25,10.0,SSW,4.6,-,N/A,,Scattered Clouds,200,2013-02-07 17:54:00
11:54 AM,37.9,28.0,68,30.21,10.0,SE,4.6,-,N/A,,Scattered Clouds,140,2013-02-07 18:54:00
12:54 PM,41.0,26.1,55,30.18,10.0,SSE,6.9,-,N/A,,Scattered Clouds,160,2013-02-07 19:54:00
1:54 PM,42.1,25.0,51,30.16,10.0,Variable,3.5,-,N/A,,Scattered Clouds,0,2013-02-07 20:54:00
2:54 PM,42.1,24.1,49,30.15,10.0,South,10.4,-,N/A,,Partly Cloudy,170,2013-02-07 21:54:00
3:54 PM,42.1,23.0,47,30.15,10.0,SSE,10.4,-,N/A,,Partly Cloudy,150,2013-02-07 22:54:00
4:54 PM,39.9,21.9,49,30.17,10.0,SSE,12.7,-,N/A,,Clear,160,2013-02-07 23:54:00
5:54 PM,35.1,21.9,59,30.22,10.0,SSE,8.1,-,N/A,,Clear,150,2013-02-08 00:54:00
6:54 PM,33.1,21.0,61,30.25,10.0,SSE,9.2,-,N/A,,Clear,150,2013-02-08 01:54:00
7:54 PM,30.9,19.9,64,30.24,10.0,SSE,9.2,-,N/A,,Clear,150,2013-02-08 02:54:00
8:54 PM,30.9,19.9,64,30.22,10.0,SSE,11.5,-,N/A,,Clear,150,2013-02-08 03:54:00
9:54 PM,30.0,19.0,64,30.20,10.0,SSE,9.2,-,N/A,,Clear,150,2013-02-08 04:54:00
10:54 PM,28.9,17.1,61,30.20,10.0,SSE,8.1,-,N/A,,Clear,150,2013-02-08 05:54:00
11:54 PM,28.9,17.1,61,30.17,10.0,ESE,3.5,-,N/A,,Clear,110,2013-02-08 06:54:00